Millville, NJ

1:52 AM EST on December 07, 2019 (GMT -0500)
Millville Municipal

Weather History for KMIV - October, 2019

Change the Weather History Date:

Friday, October 4, 2019

  Actual Average Record
Temperature  
Mean Temperature 62 °F -  
Max Temperature 75 °F 71 °F 87 °F (1954)
Min Temperature 50 °F 51 °F 30 °F (1974)
Degree Days  
Heating Degree Days 4    
Growing Degree Days 12 (Base 50)    
Moisture  
Dew Point 53 °F    
Average Humidity 68    
Maximum Humidity 93    
Minimum Humidity 35    
Precipitation  
Precipitation 0.00 in - - ()
Sea Level Pressure  
Sea Level Pressure 30.05 in    
Wind  
Wind Speed 8 mph (NNW)    
Max Wind Speed 20 mph    
Max Gust Speed 37 mph    
Visibility 9 miles    
Events      
Averages and records for this station are not official NWS values.
T = Trace of Precipitation, MM = Missing Value Source: NWS Daily Summary

Daily Weather History Graph

Daily Weather History Graph

Search for Another Location

Airport or City:

Astronomy

Oct. 04, 2019 Rise Set
Actual Time 6:59 AM EDT 6:38 PM EDT
Civil Twilight 6:32 AM EDT 7:05 PM EDT
Nautical Twilight 6:01 AM EDT 7:36 PM EDT
Astronomical Twilight 5:29 AM EDT 8:07 PM EDT
Moon 1:26 PM EDT (10/4) 11:07 PM EDT (10/4)
Length of Visible Light 12h 32m
Length of Day
11h 39m
Waxing Crescent, 39% of the Moon is Illuminated
Oct 4
Waxing Crescent
Oct 5
First Quarter
Oct 13
Full
Oct 21
Last Quarter
Oct 27
New

Hourly Weather History & Observations

Time (EDT) Temp. Dew Point Humidity Pressure Visibility Wind Dir Wind Speed Gust Speed Precip Events Conditions
12:54 AM 70.0 °F 68.0 °F 93% 29.93 in 7.0 mi Calm Calm - N/A   Overcast
1:02 AM 70.0 °F 68.0 °F 93% 29.93 in 7.0 mi WSW 3.5 mph - N/A   Overcast
1:23 AM 70.0 °F 68.0 °F 93% 29.94 in 7.0 mi West 5.8 mph - N/A   Overcast
1:54 AM 70.0 °F 68.0 °F 93% 29.93 in 7.0 mi NNW 5.8 mph - N/A   Overcast
2:06 AM 69.1 °F 66.9 °F 93% 29.93 in 3.0 mi NNW 8.1 mph - N/A   Overcast
2:54 AM 66.9 °F 64.9 °F 93% 29.92 in 6.0 mi NNW 3.5 mph - N/A   Overcast
3:54 AM 66.0 °F 64.0 °F 93% 29.92 in 10.0 mi NNW 3.5 mph - N/A   Overcast
4:12 AM 66.0 °F 64.0 °F 93% 29.93 in 10.0 mi NW 4.6 mph - N/A   Overcast
4:19 AM 66.0 °F 64.0 °F 93% 29.92 in 10.0 mi NW 4.6 mph - N/A   Overcast
4:54 AM 66.0 °F 64.0 °F 93% 29.93 in 8.0 mi NW 8.1 mph - N/A   Overcast
5:54 AM 66.0 °F 63.0 °F 90% 29.96 in 10.0 mi NNW 11.5 mph - N/A   Mostly Cloudy
6:17 AM 64.9 °F 61.0 °F 87% 29.98 in 10.0 mi NNW 15.0 mph 25.3 mph N/A   Mostly Cloudy
6:42 AM 64.0 °F 60.1 °F 87% 29.98 in 10.0 mi NNW 12.7 mph 20.7 mph N/A   Mostly Cloudy
6:54 AM 63.0 °F 59.0 °F 87% 29.99 in 10.0 mi NNW 11.5 mph 19.6 mph N/A   Partly Cloudy
7:54 AM 64.0 °F 52.0 °F 65% 30.00 in 10.0 mi NW 10.4 mph - N/A   Clear
8:54 AM 66.0 °F 48.9 °F 54% 30.03 in 10.0 mi NNW 15.0 mph 25.3 mph N/A   Clear
9:54 AM 69.1 °F 48.0 °F 47% 30.05 in 10.0 mi NW 12.7 mph 26.5 mph N/A   Clear
10:54 AM 71.1 °F 46.0 °F 41% 30.06 in 10.0 mi NW 12.7 mph 26.5 mph N/A   Clear
11:54 AM 72.0 °F 46.0 °F 40% 30.07 in 10.0 mi NNW 18.4 mph 36.8 mph N/A   Partly Cloudy
12:54 PM 73.0 °F 46.0 °F 38% 30.08 in 10.0 mi NNW 15.0 mph 23.0 mph N/A   Scattered Clouds
1:54 PM 73.9 °F 45.0 °F 35% 30.08 in 10.0 mi North 15.0 mph 26.5 mph N/A   Scattered Clouds
3:54 PM 70.0 °F 42.1 °F 36% 30.11 in 10.0 mi North 19.6 mph 29.9 mph N/A   Clear
4:54 PM 66.9 °F 39.0 °F 36% 30.14 in 10.0 mi North 16.1 mph 25.3 mph N/A   Clear
5:54 PM 63.0 °F 37.9 °F 40% 30.17 in 10.0 mi NNW 17.3 mph 25.3 mph N/A   Clear
6:54 PM 57.9 °F 39.0 °F 49% 30.21 in 10.0 mi NNW 8.1 mph - N/A   Clear
7:54 PM 55.9 °F 39.9 °F 55% 30.23 in 10.0 mi NNW 8.1 mph - N/A   Clear
8:54 PM 54.0 °F 37.9 °F 55% 30.27 in 10.0 mi North 9.2 mph - N/A   Clear
9:54 PM 54.0 °F 37.9 °F 55% 30.30 in 10.0 mi NNE 9.2 mph - N/A   Clear
10:54 PM 50.0 °F 37.9 °F 63% 30.32 in 10.0 mi North 6.9 mph - N/A   Clear
11:54 PM 50.0 °F 37.9 °F 63% 30.33 in 10.0 mi North 8.1 mph - N/A   Clear